Showing default

COSMOS 2594, 65270

Orbit data source: Space-Track

COSMOS 2594, 65270 is a payload satellite owned by MO RF (CIS) in SSO that was launched on Thu, 21 Aug 2025 UTC via an ANGARA-1.2 launch vehicle from the Plesetsk Missile And Space Complex (PKMTR). Payload-class satellites include a variety of spacecraft equipped with specific instruments for various scientific and technological missions. These include communications satellites like Starlink; space stations such as the ISS; scientific satellites like the Hubble; Earth observation satellites from companies like Planet Labs, Umbra, and HawkEye 360; GPS; miniature CubeSats for education and research; and military/defense satellites.

Loading next visibility...
Identifier
65270, 2025-182D
Orbit
SSO
Country
Flag of CISCIS
Related business
Manufacturer
VNIIEMI?
Mission
Operational Defense Imaging
Bus & Motor
OO-MKA, Unknown motor
Mass
520 kg wet, ~500 kg dry
Launch date (UTC)
2025-08-21 (9 months ago)
Launch vehicle
ANGARA-1.2
Launch site
Plesetsk Missile And Space Complex (PKMTR)
Object type
Payload
Rocket body
Debris
Shape & HBR
Cyl + 2 Pan, 1.1 m
Radar Cross Section
3.727 m², Large (>1 m²)

Expand to show TLE details & history
Last TLE update: 11 hours ago

TLE from 11 hours ago
0 COSMOS 2594
1 65270U 25182D   26133.17602453  .00001734  18553-5  56136-5 0  9999
2 65270  96.5909  64.9923 0001090 321.1143  39.0057 15.96313611 42127
Epoch: 2026-05-13T04:13Z
TLE epoch observation values (Epoch: 2026-05-13T04:13:28.519Z)
Latitude
-0°
Longitude
130.68366°
Altitude
287.308 km
Speed
7.735 km/s
True Right ascension
04h 19m 58s
True Declination
0° 00' 00"
Sunlit
Object was in daylight at epoch
Visualization orbit readout
Latitude
Unknown
Longitude
Unknown
Altitude
Unknown
Speed
Unknown
Apparent Right ascension
Unknown
Apparent Declination
Unknown
Sunlit
N/A
Visualization observer readout
Local Sidereal Time
23:18:30
Azimuth
Unknown
Elevation
Unknown
Doppler factor
Unknown
Orbital elements
Apogee altitude
282.213 km
Perigee altitude
280.762 km
Semi-major axis
6,659.624 km
Eccentricity
0.00011
Inclination
96.5909°
RAAN
64.9923°
Arg. of periapsis
321.1143°
True anomaly
39.01356°
Mean anomaly
39.0057°
Eccentric anomaly
39.00963°
Mean motion
3.99364 °/min
Orbital period
90.14 mins
BSTAR
0.0000056136
Loading maneuver chart data...
Computing Atmospheric mass density...
Loading historical data...
Loading historical data...
Loading historical data...
Loading historical data...
Loading historical data...
Loading historical data...
Loading historical data...
Other satellites on launch #182 in the year 2025 (2025-08-21 UTC)

Documentation

Showing up to 5 results
|